Regional Weather Roundup
Issued by NWS Cleveland, OH

Home | Current Version | Previous Version | Graphics & Text | Print | Product List | Glossary On
Versions: 1 2 3 4 5 6 7 8 9 10 11 12 13 14 15 16 17 18 19 20 21 22 23 24 25 26 27 28 29 30 31 32 33 34 35 36 37 38 39 40 41 42 43 44 45 46 47 48 49 50
000
ASUS41 KCLE 100310
RWRCLE
OHIO REGIONAL WEATHER ROUNDUP
NATIONAL WEATHER SERVICE CLEVELAND, OH
1000 PM EST FRI DEC 09 2016

NOTE: "FAIR" INDICATES FEW OR NO CLOUDS BELOW 12,000 FEET WITH NO
SIGNIFICANT WEATHER AND/OR OBSTRUCTIONS TO VISIBILITY.

OHZ001>008-015>018-024>027-034-035-043-044-100400-
   NORTHWEST OHIO

CITY           SKY/WX    TMP DP  RH WIND       PRES   REMARKS
DEFIANCE       CLOUDY    27  17  66 VRB6      30.47F WCI  20
FINDLAY        CLOUDY    26  18  71 W14       30.46S WCI  14
TOLEDO EXPRESS CLOUDY    25  19  78 W13       30.44F WCI  14
TOLEDO EXEC    CLOUDY    27  18  69 W15       30.45F WCI  15
LIMA           CLOUDY    24  18  77 W15       30.47F WCI  11
$$

OHZ009>014-019>023-028>033-038-089-100400-
   NORTHEAST OHIO

CITY           SKY/WX    TMP DP  RH WIND       PRES   REMARKS
CLE-HOPKINS    MOCLDY    27  21  78 SW15      30.43S WCI  15
CLE-LAKEFRONT  LGT SNOW  27  23  85 SW20G31   30.40S VSB 1   WCI  13
CUY CO. ARPT   SNOW      27  27 100 W16       30.39R VSB 1/4 WCI  14
LORAIN-ELYRIA  CLOUDY    26  19  74 W16G22    30.43S WCI  14
ASHTABULA      LGT SNOW  25  23  92 SW8       30.36S VSB 3/4 WCI  16
AKRON-CANTON   MOCLDY    25  18  74 W14       30.40F WCI  13
WOOSTER        CLOUDY    24  19  81 W14       30.43R WCI  12
MANSFIELD      FLURRIES  23  18  81 SW9       30.42F WCI  13
YOUNGSTOWN     FLURRIES  25  19  78 SW12      30.36F WCI  14
$$

OHZ042-051>053-060>062-070>072-077>081-100400-
  SOUTHWEST OHIO

CITY           SKY/WX    TMP DP  RH WIND       PRES   REMARKS
CINC-COVINGTON CLOUDY    23  14  68 CALM      30.51F
CINC-LUNKEN    CLOUDY    25  15  66 SW5       30.56F WCI  19
HAMILTON       CLOUDY    25  16  68 W5        30.55F WCI  19
DAYTON         FLURRIES  23  19  85 W7        30.50F WCI  15
WRIGHT-PAT AFB FLURRIES  24  20  84 SW7       30.50F WCI  16
DAYTON GENERAL CLOUDY    23  17  78 SW7       30.50F WCI  15
WILMINGTON     CLOUDY    23  16  74 W9        30.50F WCI  13
$$

OHZ036-037-039>041-045>050-054>059-063>069-073>076-082>088-100400-
  CENTRAL AND SOUTHEAST OHIO

CITY           SKY/WX    TMP DP  RH WIND       PRES   REMARKS
COLUMBUS       FLURRIES  25  19  78 W10       30.50S WCI  15
OSU AIRPORT    CLOUDY    25  18  74 W10       30.49S WCI  15
BOLTON FIELD   CLOUDY    24  19  82 W7        30.50F WCI  16
RICKENBACK AFB FLURRIES  25  20  80 W8        30.51S WCI  16
NEWARK         CLOUDY    26  18  71 W9        30.48F WCI  17
MARION         CLOUDY    24  18  77 W10       30.46F WCI  14
LANCASTER      LGT SNOW  23  20  88 SW8       30.51S FOG     WCI  14
ZANESVILLE     FLURRIES  25  19  78 W9        30.48S WCI  15
NEW PHILLY     NOT AVBL
$$




USA.gov is the U.S. government's official web portal to all federal, state and local government web resources and services.